sat.trackr.live / text

‹ back to catalog

ONEWEB-0291

NORAD 49081 · 2021-075G

PAYLOAD ACTIVE UNKNOWN

§ Identity

Operator
Country
UK
Launch date
2021-08-21
Launch site
TYMSC
Launch vehicle
Mass (kg)
RCS (m²)

Purposes: comms

External: N2YO · Heavens-Above · Gunter

§ Orbital elements

Epoch: 2026-05-25T01:53:17.695392Z

Period
109.29 min
Inclination
87.9162°
Eccentricity
0.0001803
Mean motion
13.17652070 rev/d
Perigee alt
1,192.3 km
Apogee alt
1,195.1 km
Semi-major
7,571.8 km
B*
1.1284e-4
RAAN
10.4568°
Arg perigee
96.6708°
Mean anomaly
263.4629°
Rev number
23,056

§ Raw data

ONEWEB-02911 49081U 21075G   26145.07867703  .00000057  00000+0  11284-3 0  99932 49081  87.9162  10.4568 0001803  96.6708 263.4629 13.17652070230569

JSON: /api/v1/satellites/49081 · /tle

For live sub-satellite position, see the globe view (requires WebGL).

§ Visibility from observer

Set your observer location to see the next 7 days of passes ≥ 10°. The values pass through the URL so the page stays shareable.

No JS? Fill the form by hand. The geolocation button needs JavaScript.